When you browse on this site, cookies collect data to enhance your experience and personalize the content and advertising you see.
Visit our Privacy Policy to learn more. By continuing to use the site, you agree to this use of cookies and data.
  • In Hungary
  • List of Countries
  • For 7 days
  • Water Temperature
  • Satellite Maps
  • Weather Map
  • News
  • Weather Widgets
  • user-avatar
    Login

    Hourly Weather Goroka

    Today, 19 November, Monday

    Time Temperature Precipitation Wind Pressure Humidity
    00:00 +16°C° 0.4 mm 0 mps 623 mmHg 95%
    01:00 +16°C° 0.4 mm 0 mps 623 mmHg 95%
    02:00 +15°C° 0.4 mm 0 mps 623 mmHg 95%
    03:00 +15°C° 0.4 mm 0 mps 623 mmHg 95%
    04:00 +15°C° 0 mm 0 mps 622 mmHg 95%
    05:00 +15°C° 0.2 mm 0 mps 623 mmHg 94%
    06:00 +15°C° 0.2 mm 0 mps 623 mmHg 93%
    07:00 +16°C° 0.2 mm 0 mps 623 mmHg 92%
    08:00 +18°C° 0.1 mm 0 mps 624 mmHg 83%
    09:00 +19°C° 0.1 mm 0 mps 625 mmHg 74%
    10:00 +24°C° 0 mm 1 mps 626 mmHg 64%
    11:00 +24°C° 0.1 mm 1 mps 625 mmHg 62%
    12:00 +25°C° 0.1 mm 1 mps 625 mmHg 60%
    13:00 +25°C° 0.1 mm 1 mps 625 mmHg 59%
    14:00 +24°C° 0.5 mm 1 mps 624 mmHg 66%
    15:00 +23°C° 0.5 mm 1 mps 624 mmHg 73%
    16:00 +21°C° 0 mm 1 mps 623 mmHg 82%
    17:00 +20°C° 0.6 mm 1 mps 623 mmHg 86%
    18:00 +18°C° 0.6 mm 0 mps 623 mmHg 90%
    19:00 +17°C° 0.6 mm 0 mps 623 mmHg 94%
    20:00 +17°C° 0.6 mm 0 mps 624 mmHg 94%
    21:00 +16°C° 0.6 mm 0 mps 624 mmHg 94%
    22:00 +16°C° 0 mm 0 mps 624 mmHg 95%
    23:00 +16°C° 0.7 mm 0 mps 624 mmHg 95%

    Tomorrow, 20 November, Tuesday

    Time Temperature Precipitation Wind Pressure Humidity
    00:00 +16°C° 0.7 mm 0 mps 624 mmHg 95%
    01:00 +16°C° 0.7 mm 0 mps 624 mmHg 95%
    02:00 +16°C° 1 mm 0 mps 623 mmHg 95%
    03:00 +16°C° 1 mm 0 mps 623 mmHg 95%
    04:00 +16°C° 1 mm 0 mps 623 mmHg 95%
    05:00 +16°C° 0.6 mm 0 mps 623 mmHg 94%
    06:00 +16°C° 0.6 mm 0 mps 624 mmHg 93%
    07:00 +16°C° 0.6 mm 0 mps 624 mmHg 93%
    08:00 +17°C° 0.3 mm 0 mps 624 mmHg 87%
    09:00 +19°C° 0.3 mm 0 mps 625 mmHg 82%
    10:00 +20°C° 0.3 mm 0 mps 625 mmHg 77%
    11:00 +20°C° 0.7 mm 0 mps 625 mmHg 77%
    12:00 +22°C° 0.7 mm 1 mps 624 mmHg 77%
    13:00 +22°C° 0.7 mm 1 mps 624 mmHg 78%
    14:00 +22°C° 0.9 mm 1 mps 624 mmHg 80%
    15:00 +21°C° 0.9 mm 1 mps 623 mmHg 82%
    16:00 +19°C° 0.9 mm 0 mps 623 mmHg 85%
    17:00 +18°C° 0.9 mm 0 mps 623 mmHg 88%
    18:00 +17°C° 0.9 mm 0 mps 623 mmHg 91%
    19:00 +16°C° 0.9 mm 0 mps 623 mmHg 94%
    20:00 +16°C° 0.6 mm 0 mps 623 mmHg 94%
    21:00 +16°C° 0.6 mm 0 mps 623 mmHg 94%
    22:00 +16°C° 0.6 mm 0 mps 624 mmHg 94%
    23:00 +16°C° 0.7 mm 0 mps 624 mmHg 94%

    Day after tomorrow, 21 November, Wednesday

    Time Temperature Precipitation Wind Pressure Humidity
    00:00 +16°C° 0.7 mm 0 mps 623 mmHg 94%
    01:00 +16°C° 0.7 mm 0 mps 623 mmHg 94%
    02:00 +15°C° 0.4 mm 0 mps 623 mmHg 93%
    03:00 +15°C° 0.4 mm 0 mps 623 mmHg 93%
    04:00 +15°C° 0.4 mm 0 mps 622 mmHg 93%
    05:00 +15°C° 0.1 mm 0 mps 623 mmHg 92%
    06:00 +16°C° 0.1 mm 0 mps 623 mmHg 90%
    07:00 +16°C° 0.1 mm 0 mps 624 mmHg 89%
    08:00 +19°C° 0 mm 0 mps 625 mmHg 78%
    09:00 +23°C° 0 mm 1 mps 626 mmHg 66%
    10:00 +26°C° 0 mm 1 mps 627 mmHg 55%
    11:00 +26°C° 0.3 mm 1 mps 626 mmHg 57%
    12:00 +26°C° 0.3 mm 1 mps 626 mmHg 60%
    13:00 +26°C° 0.3 mm 1 mps 625 mmHg 62%
    14:00 +25°C° 1.2 mm 1 mps 624 mmHg 68%
    15:00 +24°C° 1.2 mm 1 mps 624 mmHg 74%
    16:00 +23°C° 1.2 mm 1 mps 623 mmHg 80%
    17:00 +22°C° 1.8 mm 1 mps 623 mmHg 85%
    18:00 +18°C° 1.8 mm 0 mps 623 mmHg 89%
    19:00 +17°C° 1.8 mm 0 mps 623 mmHg 93%
    20:00 +17°C° 1 mm 0 mps 623 mmHg 93%
    21:00 +17°C° 1 mm 0 mps 624 mmHg 94%
    22:00 +16°C° 1 mm 0 mps 624 mmHg 94%
    23:00 +16°C° 0.2 mm 0 mps 624 mmHg 94%

    22 November, Thursday

    Time Temperature Precipitation Wind Pressure Humidity
    00:00 +16°C° 0.2 mm 0 mps 623 mmHg 94%
    01:00 +16°C° 0.2 mm 0 mps 623 mmHg 94%
    02:00 +15°C° 0 mm 0 mps 622 mmHg 94%
    03:00 +15°C° 0 mm 0 mps 622 mmHg 94%
    04:00 +15°C° 0 mm 0 mps 622 mmHg 94%
    05:00 +15°C° 0 mm 0 mps 623 mmHg 92%
    06:00 +16°C° 0 mm 0 mps 623 mmHg 91%
    07:00 +16°C° 0 mm 0 mps 624 mmHg 89%
    08:00 +21°C° 0 mm 1 mps 625 mmHg 77%
    09:00 +23°C° 0 mm 1 mps 626 mmHg 64%
    10:00 +26°C° 0 mm 1 mps 627 mmHg 51%
    11:00 +27°C° 0.1 mm 1 mps 627 mmHg 51%
    12:00 +27°C° 0.1 mm 1 mps 626 mmHg 50%
    13:00 +28°C° 0.1 mm 2 mps 626 mmHg 49%
    14:00 +26°C° 0.7 mm 1 mps 625 mmHg 57%
    15:00 +25°C° 0.7 mm 1 mps 624 mmHg 65%
    16:00 +24°C° 0.7 mm 1 mps 624 mmHg 73%
    17:00 +22°C° 0.9 mm 1 mps 624 mmHg 79%
    18:00 +20°C° 0.9 mm 1 mps 624 mmHg 85%
    19:00 +17°C° 0.9 mm 0 mps 624 mmHg 91%
    20:00 +16°C° 0.4 mm 0 mps 624 mmHg 92%
    21:00 +16°C° 0.4 mm 0 mps 624 mmHg 92%
    22:00 +16°C° 0.4 mm 0 mps 625 mmHg 92%
    23:00 +16°C° 0.1 mm 0 mps 624 mmHg 92%

    23 November, Friday

    Time Temperature Precipitation Wind Pressure Humidity
    00:00 +15°C° 0.1 mm 0 mps 624 mmHg 92%
    01:00 +15°C° 0.1 mm 0 mps 624 mmHg 92%
    02:00 +15°C° 0 mm 0 mps 623 mmHg 92%
    03:00 +15°C° 0 mm 0 mps 623 mmHg 92%
    04:00 +16°C° 0 mm 1 mps 623 mmHg 92%
    05:00 +15°C° 0 mm 0 mps 623 mmHg 91%
    06:00 +16°C° 0 mm 0 mps 624 mmHg 89%
    07:00 +16°C° 0 mm 0 mps 625 mmHg 88%
    08:00 +21°C° 0.1 mm 1 mps 626 mmHg 76%
    09:00 +24°C° 0.1 mm 1 mps 627 mmHg 64%
    10:00 +26°C° 0.1 mm 1 mps 628 mmHg 52%
    11:00 +26°C° 0.5 mm 1 mps 627 mmHg 56%
    12:00 +26°C° 0.5 mm 1 mps 626 mmHg 60%
    13:00 +25°C° 0.5 mm 1 mps 625 mmHg 64%
    14:00 +25°C° 1 mm 1 mps 625 mmHg 69%
    15:00 +24°C° 1 mm 1 mps 625 mmHg 73%
    16:00 +23°C° 1 mm 1 mps 624 mmHg 78%
    17:00 +22°C° 1.1 mm 1 mps 624 mmHg 83%
    18:00 +21°C° 1.1 mm 1 mps 624 mmHg 88%
    19:00 +17°C° 1.1 mm 0 mps 624 mmHg 93%
    20:00 +17°C° 0.7 mm 0 mps 625 mmHg 94%
    21:00 +17°C° 0.7 mm 0 mps 625 mmHg 94%
    22:00 +17°C° 0.7 mm 0 mps 626 mmHg 95%
    23:00 +16°C° 0.6 mm 0 mps 625 mmHg 95%

    24 November, Saturday

    Time Temperature Precipitation Wind Pressure Humidity
    00:00 +16°C° 0.6 mm 0 mps 625 mmHg 95%
    01:00 +16°C° 0.6 mm 0 mps 625 mmHg 95%
    02:00 +16°C° 0.1 mm 0 mps 624 mmHg 95%
    03:00 +16°C° 0.1 mm 0 mps 624 mmHg 95%
    04:00 +16°C° 0.1 mm 0 mps 624 mmHg 95%
    05:00 +16°C° 0 mm 0 mps 624 mmHg 93%
    06:00 +16°C° 0 mm 0 mps 625 mmHg 92%
    07:00 +17°C° 0 mm 0 mps 626 mmHg 91%
    08:00 +19°C° 0.1 mm 0 mps 626 mmHg 83%
    09:00 +21°C° 0.1 mm 0 mps 627 mmHg 75%
    10:00 +25°C° 0.1 mm 1 mps 628 mmHg 66%
    11:00 +25°C° 0.7 mm 1 mps 627 mmHg 67%
    12:00 +24°C° 0.7 mm 1 mps 627 mmHg 68%
    13:00 +24°C° 0.7 mm 1 mps 626 mmHg 69%
    14:00 +24°C° 1 mm 1 mps 626 mmHg 72%
    15:00 +23°C° 1 mm 1 mps 625 mmHg 76%
    16:00 +22°C° 1 mm 1 mps 625 mmHg 79%
    17:00 +21°C° 0.7 mm 1 mps 625 mmHg 83%
    18:00 +20°C° 0.7 mm 1 mps 625 mmHg 88%
    19:00 +16°C° 0.7 mm 0 mps 625 mmHg 92%
    20:00 +16°C° 0.4 mm 0 mps 625 mmHg 92%
    21:00 +16°C° 0.4 mm 0 mps 625 mmHg 92%
    22:00 +16°C° 0.4 mm 0 mps 626 mmHg 92%
    23:00 +15°C° 0.6 mm 0 mps 625 mmHg 92%
    Show more